FIN1402 EDDM-EFHK

Flight info

Callsign FIN1402
Flight time 2h 3m
Altitude 34000
Route AKINI1E AKINI Y104 MAMOR L132 AGNAV DCT SUPIL DCT KILNU DCT UNRIG/N0442F350 DCT BODLA DCT PENOR DCT ALAMI DCT OKEVU DCT EVADI Y370 DIVAM DIVAM5A
Aircraft A321/M-SDE3FGHIRWY/LB1

Departure

Time 2026-05-06 08:44
Airport Munich Airport (EDDM)

Arrival

Time 2026-05-06 10:48
Airport Helsinki Vantaa Airport (EFHK)
Time Latitude Longitude Altitude Speed Heading
2026-05-06 08:19 48.35369 11.79760 1458 ft 0 kts 83°
2026-05-06 08:30 48.35368 11.79749 1458 ft 4 kts 83°
2026-05-06 08:30 48.35364 11.79709 1462 ft 4 kts 79°
2026-05-06 08:30 48.35359 11.79669 1459 ft 4 kts 79°
2026-05-06 08:31 48.35354 11.79635 1460 ft 4 kts 62°
2026-05-06 08:31 48.35338 11.79614 1456 ft 4 kts
2026-05-06 08:31 48.35319 11.79616 1458 ft 1 kts 352°
2026-05-06 08:31 48.35316 11.79617 1458 ft 0 kts 352°
2026-05-06 08:36 48.35333 11.79613 1461 ft 7 kts 351°
2026-05-06 08:36 48.35398 11.79601 1465 ft 10 kts 354°
2026-05-06 08:36 48.35473 11.79589 1465 ft 11 kts 352°
2026-05-06 08:36 48.35554 11.79574 1465 ft 12 kts 353°
2026-05-06 08:37 48.35639 11.79560 1459 ft 13 kts 354°
2026-05-06 08:37 48.35728 11.79545 1465 ft 13 kts 353°
2026-05-06 08:37 48.35823 11.79528 1461 ft 14 kts 353°
2026-05-06 08:37 48.35921 11.79511 1460 ft 15 kts 353°
2026-05-06 08:38 48.36023 11.79493 1460 ft 15 kts 353°
2026-05-06 08:38 48.36124 11.79475 1461 ft 12 kts 353°
2026-05-06 08:38 48.36205 11.79490 1466 ft 12 kts 46°
2026-05-06 08:38 48.36224 11.79614 1461 ft 13 kts 83°
2026-05-06 08:39 48.36235 11.79749 1465 ft 13 kts 83°
2026-05-06 08:39 48.36246 11.79889 1468 ft 14 kts 83°
2026-05-06 08:39 48.36258 11.80041 1468 ft 16 kts 84°
2026-05-06 08:39 48.36271 11.80225 1468 ft 18 kts 84°
2026-05-06 08:40 48.36287 11.80418 1467 ft 19 kts 83°
2026-05-06 08:40 48.36303 11.80616 1467 ft 19 kts 83°
2026-05-06 08:40 48.36318 11.80818 1466 ft 20 kts 83°
2026-05-06 08:40 48.36333 11.81024 1467 ft 20 kts 83°
2026-05-06 08:41 48.36349 11.81232 1463 ft 20 kts 83°
2026-05-06 08:41 48.36365 11.81446 1463 ft 21 kts 84°
2026-05-06 08:41 48.36382 11.81663 1460 ft 21 kts 83°
2026-05-06 08:41 48.36396 11.81865 1466 ft 14 kts 88°
2026-05-06 08:42 48.36396 11.82004 1459 ft 12 kts 54°
2026-05-06 08:42 48.36475 11.82006 1466 ft 12 kts 352°
2026-05-06 08:42 48.36553 11.81992 1463 ft 10 kts 354°
2026-05-06 08:42 48.36622 11.81976 1466 ft 10 kts 342°
2026-05-06 08:43 48.36670 11.81903 1461 ft 10 kts 286°
2026-05-06 08:43 48.36668 11.81836 1466 ft 0 kts 262°
2026-05-06 08:43 48.36659 11.81718 1463 ft 41 kts 263°
2026-05-06 08:44 48.36598 11.80928 1459 ft 108 kts 264°
2026-05-06 08:44 48.36490 11.79508 1466 ft 163 kts 264°
2026-05-06 08:44 48.36363 11.77667 1783 ft 183 kts 265°
2026-05-06 08:44 48.36229 11.75740 2450 ft 187 kts 264°
2026-05-06 08:45 48.36089 11.73779 2939 ft 195 kts 264°
2026-05-06 08:45 48.35928 11.71648 3063 ft 220 kts 263°
2026-05-06 08:45 48.35809 11.69218 3235 ft 243 kts 275°
2026-05-06 08:45 48.36327 11.66805 3904 ft 243 kts 307°
2026-05-06 08:46 48.37624 11.65273 4651 ft 241 kts 342°
2026-05-06 08:46 48.39286 11.64883 5211 ft 248 kts 355°
2026-05-06 08:46 48.41067 11.64573 5534 ft 267 kts 352°
2026-05-06 08:46 48.42966 11.64152 5942 ft 282 kts 351°
2026-05-06 08:47 48.44939 11.63667 6470 ft 290 kts 356°
2026-05-06 08:47 48.46922 11.63983 7249 ft 287 kts 20°
2026-05-06 08:47 48.48692 11.65380 7888 ft 292 kts 38°
2026-05-06 08:47 48.50142 11.67562 8474 ft 296 kts 55°
2026-05-06 08:48 48.51305 11.70132 9172 ft 297 kts 57°
2026-05-06 08:48 48.52506 11.72682 9841 ft 301 kts 56°
2026-05-06 08:48 48.53749 11.75246 10428 ft 304 kts 55°
2026-05-06 08:48 48.55016 11.77832 10974 ft 309 kts 56°
2026-05-06 08:49 48.56302 11.80461 11561 ft 313 kts 56°
2026-05-06 08:49 48.57584 11.83089 12143 ft 317 kts 56°
2026-05-06 08:49 48.58911 11.85830 12733 ft 321 kts 56°
2026-05-06 08:49 48.60216 11.88535 13332 ft 325 kts 56°
2026-05-06 08:50 48.61554 11.91315 13868 ft 329 kts 56°
2026-05-06 08:50 48.62904 11.94130 14395 ft 333 kts 56°
2026-05-06 08:50 48.64269 11.96984 14920 ft 336 kts 56°
2026-05-06 08:50 48.65643 11.99859 15450 ft 339 kts 56°
2026-05-06 08:51 48.67031 12.02765 15963 ft 342 kts 56°
2026-05-06 08:51 48.68432 12.05687 16548 ft 344 kts 53°
2026-05-06 08:51 48.69481 12.07503 16925 ft 346 kts 45°
2026-05-06 08:51 48.71363 12.09781 17476 ft 348 kts 31°
2026-05-06 08:52 48.73523 12.11451 18007 ft 350 kts 23°
2026-05-06 08:52 48.75757 12.12965 18458 ft 354 kts 24°
2026-05-06 08:52 48.78041 12.14560 18576 ft 369 kts 24°
2026-05-06 08:52 48.80414 12.16260 18698 ft 383 kts 25°
2026-05-06 08:53 48.82858 12.18037 18811 ft 397 kts 25°
2026-05-06 08:53 48.85387 12.19885 18957 ft 409 kts 25°
2026-05-06 08:53 48.87979 12.21776 19288 ft 416 kts 25°
2026-05-06 08:53 48.90609 12.23678 19702 ft 420 kts 24°
2026-05-06 08:54 48.93271 12.25567 20143 ft 424 kts 24°
2026-05-06 08:54 48.95960 12.27453 20577 ft 428 kts 24°
2026-05-06 08:54 48.98681 12.29352 21009 ft 431 kts 24°
2026-05-06 08:54 49.01420 12.31265 21431 ft 435 kts 24°
2026-05-06 08:55 49.04150 12.33184 21836 ft 439 kts 24°
2026-05-06 08:55 49.06929 12.35147 22247 ft 442 kts 24°
2026-05-06 08:55 49.09736 12.37136 22659 ft 445 kts 24°
2026-05-06 08:55 49.12553 12.39133 23110 ft 447 kts 23°
2026-05-06 08:56 49.15377 12.41137 23500 ft 450 kts 23°
2026-05-06 08:56 49.18223 12.43159 23831 ft 452 kts 23°
2026-05-06 08:56 49.21088 12.45194 24146 ft 455 kts 23°
2026-05-06 08:56 49.23967 12.47243 24469 ft 458 kts 23°
2026-05-06 08:57 49.26869 12.49320 24783 ft 461 kts 23°
2026-05-06 08:57 49.29781 12.51411 25103 ft 464 kts 23°
2026-05-06 08:57 49.32730 12.53427 25466 ft 464 kts 18°
2026-05-06 08:57 49.35813 12.54860 25793 ft 463 kts
2026-05-06 08:58 49.38967 12.55854 26114 ft 464 kts
2026-05-06 08:58 49.42141 12.56838 26429 ft 467 kts
2026-05-06 08:58 49.45339 12.57829 26736 ft 469 kts
2026-05-06 08:58 49.48549 12.58831 27035 ft 472 kts
2026-05-06 08:59 49.51779 12.59847 27358 ft 474 kts
2026-05-06 08:59 49.55013 12.60872 27697 ft 475 kts
2026-05-06 08:59 49.58266 12.61884 28004 ft 477 kts
2026-05-06 08:59 49.61537 12.62785 28290 ft 478 kts
2026-05-06 09:00 49.64787 12.63578 28575 ft 480 kts
2026-05-06 09:00 49.68101 12.64323 28856 ft 482 kts
2026-05-06 09:00 49.71431 12.65060 29141 ft 485 kts
2026-05-06 09:00 49.74773 12.65819 29464 ft 486 kts
2026-05-06 09:01 49.78119 12.66609 29796 ft 488 kts
2026-05-06 09:01 49.81486 12.67429 30062 ft 490 kts
2026-05-06 09:01 49.84846 12.68265 30369 ft 490 kts
2026-05-06 09:01 49.88218 12.69112 30689 ft 490 kts
2026-05-06 09:02 49.91584 12.69956 30989 ft 491 kts
2026-05-06 09:02 49.94958 12.70796 31290 ft 491 kts
2026-05-06 09:02 49.98337 12.71631 31631 ft 491 kts
2026-05-06 09:02 50.01710 12.72464 31952 ft 491 kts
2026-05-06 09:03 50.05085 12.73299 32251 ft 491 kts
2026-05-06 09:03 50.08468 12.74138 32541 ft 492 kts
2026-05-06 09:03 50.11844 12.74977 32817 ft 492 kts
2026-05-06 09:03 50.15231 12.75817 33084 ft 493 kts
2026-05-06 09:04 50.18619 12.76658 33362 ft 493 kts
2026-05-06 09:04 50.22008 12.77501 33662 ft 493 kts
2026-05-06 09:04 50.25394 12.78347 33815 ft 493 kts
2026-05-06 09:05 50.32136 12.80049 33831 ft 489 kts
2026-05-06 09:05 50.38669 12.82955 33823 ft 497 kts 21°
2026-05-06 09:06 50.44709 12.88333 33812 ft 500 kts 29°
2026-05-06 09:06 50.51011 12.92755 33809 ft 493 kts 12°
2026-05-06 09:07 50.57596 12.95859 33808 ft 494 kts 13°
2026-05-06 09:07 50.64179 12.99009 33826 ft 494 kts 13°
2026-05-06 09:08 50.70734 13.02165 33820 ft 491 kts 13°
2026-05-06 09:08 50.77226 13.05282 33820 ft 490 kts 13°
2026-05-06 09:09 50.83782 13.08436 33823 ft 489 kts 13°
2026-05-06 09:09 50.90251 13.11557 33826 ft 487 kts 13°
2026-05-06 09:10 50.96725 13.14696 33819 ft 486 kts 13°
2026-05-06 09:10 51.03185 13.17843 33816 ft 485 kts 13°
2026-05-06 09:11 51.09638 13.20992 33822 ft 485 kts 14°
2026-05-06 09:11 51.16078 13.24142 33812 ft 484 kts 14°
2026-05-06 09:12 51.22521 13.27292 33807 ft 484 kts 14°
2026-05-06 09:12 51.28953 13.30454 33816 ft 484 kts 14°
2026-05-06 09:13 51.35373 13.33625 33812 ft 482 kts 14°
2026-05-06 09:13 51.41784 13.36803 33809 ft 481 kts 14°
2026-05-06 09:14 51.48133 13.39956 33798 ft 480 kts 14°
2026-05-06 09:14 51.54515 13.43125 33796 ft 480 kts 15°
2026-05-06 09:15 51.60894 13.46294 33789 ft 479 kts 15°
2026-05-06 09:15 51.67262 13.49472 33784 ft 479 kts 15°
2026-05-06 09:16 51.73627 13.52663 33777 ft 478 kts 15°
2026-05-06 09:16 51.79978 13.55874 33789 ft 478 kts 15°
2026-05-06 09:16 51.83161 13.57483 33922 ft 480 kts 15°
2026-05-06 09:17 51.86352 13.59098 34153 ft 481 kts 15°
2026-05-06 09:17 51.89534 13.60755 34381 ft 481 kts 17°
2026-05-06 09:17 51.92705 13.62495 34622 ft 481 kts 18°
2026-05-06 09:17 51.95863 13.64297 34750 ft 481 kts 18°
2026-05-06 09:18 51.99011 13.66124 34767 ft 481 kts 18°
2026-05-06 09:18 52.05311 13.69769 34766 ft 480 kts 18°
2026-05-06 09:19 52.11617 13.73350 34767 ft 480 kts 18°
2026-05-06 09:19 52.17929 13.76912 34770 ft 480 kts 18°
2026-05-06 09:20 52.24235 13.80489 34774 ft 479 kts 18°
2026-05-06 09:20 52.30525 13.84093 34777 ft 479 kts 18°
2026-05-06 09:21 52.36814 13.87702 34777 ft 479 kts 18°
2026-05-06 09:21 52.43108 13.91317 34775 ft 479 kts 18°
2026-05-06 09:22 52.49357 13.94931 34781 ft 478 kts 18°
2026-05-06 09:22 52.55622 13.98566 34780 ft 477 kts 18°
2026-05-06 09:23 52.61878 14.02200 34781 ft 477 kts 18°
2026-05-06 09:23 52.68130 14.05834 34779 ft 476 kts 18°
2026-05-06 09:24 52.74378 14.09477 34783 ft 476 kts 18°
2026-05-06 09:24 52.80625 14.13129 34780 ft 476 kts 18°
2026-05-06 09:25 52.86866 14.16791 34778 ft 476 kts 18°
2026-05-06 09:25 52.93103 14.20474 34788 ft 475 kts 19°
2026-05-06 09:26 52.99331 14.24159 34793 ft 475 kts 19°
2026-05-06 09:26 53.05558 14.27856 34794 ft 475 kts 19°
2026-05-06 09:27 53.11731 14.31531 34791 ft 474 kts 19°
2026-05-06 09:27 53.17933 14.35228 34793 ft 474 kts 20°
2026-05-06 09:28 53.24138 14.38933 34792 ft 473 kts 20°
2026-05-06 09:28 53.30073 14.43676 34803 ft 472 kts 34°
2026-05-06 09:29 53.35579 14.49689 34798 ft 472 kts 34°
2026-05-06 09:29 53.41085 14.55694 34798 ft 472 kts 34°
2026-05-06 09:30 53.46588 14.61718 34783 ft 472 kts 34°
2026-05-06 09:30 53.52091 14.67769 34788 ft 474 kts 34°
2026-05-06 09:31 53.57615 14.73866 34805 ft 475 kts 34°
2026-05-06 09:31 53.63107 14.79947 34810 ft 475 kts 35°
2026-05-06 09:32 53.68667 14.86111 34815 ft 475 kts 35°
2026-05-06 09:32 53.74154 14.92206 34816 ft 475 kts 35°
2026-05-06 09:33 53.79674 14.98361 34818 ft 475 kts 35°
2026-05-06 09:33 53.85186 15.04536 34821 ft 475 kts 35°
2026-05-06 09:34 53.90694 15.10730 34828 ft 475 kts 35°
2026-05-06 09:34 53.96201 15.16948 34829 ft 475 kts 35°
2026-05-06 09:35 54.01744 15.23212 34839 ft 475 kts 35°
2026-05-06 09:35 54.06319 15.28391 34833 ft 475 kts 35°
2026-05-06 09:36 54.12712 15.35674 34848 ft 476 kts 35°
2026-05-06 09:36 54.18213 15.41953 34851 ft 476 kts 35°
2026-05-06 09:37 54.22820 15.47227 34851 ft 476 kts 35°
2026-05-06 09:37 54.28317 15.53551 34855 ft 476 kts 35°
2026-05-06 09:38 54.33814 15.59897 34850 ft 477 kts 35°
2026-05-06 09:38 54.39313 15.66257 34858 ft 477 kts 35°
2026-05-06 09:39 54.44781 15.72594 34872 ft 477 kts 35°
2026-05-06 09:39 54.50286 15.78991 34877 ft 477 kts 35°
2026-05-06 09:40 54.55787 15.85407 34881 ft 478 kts 35°
2026-05-06 09:40 54.64043 15.95102 34886 ft 479 kts 35°
2026-05-06 09:41 54.69549 16.01582 34886 ft 479 kts 35°
2026-05-06 09:41 54.75049 16.08073 34896 ft 479 kts 35°
2026-05-06 09:42 54.80556 16.14610 34893 ft 480 kts 35°
2026-05-06 09:42 54.86031 16.21131 34905 ft 480 kts 35°
2026-05-06 09:43 54.91576 16.27745 34912 ft 480 kts 35°
2026-05-06 09:43 54.97082 16.34324 34913 ft 480 kts 35°
2026-05-06 09:44 55.02579 16.40935 34923 ft 480 kts 35°
2026-05-06 09:44 55.08075 16.47561 34923 ft 480 kts 35°
2026-05-06 09:45 55.13533 16.54164 34922 ft 480 kts 35°
2026-05-06 09:45 55.19020 16.60826 34941 ft 480 kts 35°
2026-05-06 09:46 55.24513 16.67519 34933 ft 481 kts 35°
2026-05-06 09:46 55.30004 16.74233 34936 ft 481 kts 35°
2026-05-06 09:47 55.35510 16.80978 34938 ft 482 kts 35°
2026-05-06 09:47 55.41002 16.87736 34932 ft 482 kts 35°
2026-05-06 09:48 55.46454 16.94484 34927 ft 483 kts 35°
2026-05-06 09:48 55.51955 17.01300 34927 ft 484 kts 35°
2026-05-06 09:49 55.57466 17.08141 34936 ft 485 kts 35°
2026-05-06 09:49 55.62985 17.15016 34942 ft 485 kts 34°
2026-05-06 09:50 55.68816 17.21047 34959 ft 485 kts 28°
2026-05-06 09:50 55.74715 17.26899 34966 ft 486 kts 28°
2026-05-06 09:51 55.80630 17.32783 34968 ft 487 kts 28°
2026-05-06 09:51 55.86536 17.38684 34976 ft 487 kts 28°
2026-05-06 09:52 55.92441 17.44611 34992 ft 487 kts 28°
2026-05-06 09:52 55.98344 17.50558 34989 ft 487 kts 28°
2026-05-06 09:53 56.04207 17.56481 34992 ft 487 kts 28°
2026-05-06 09:53 56.10106 17.62463 34987 ft 487 kts 28°
2026-05-06 09:54 56.15998 17.68461 34985 ft 487 kts 27°
2026-05-06 09:54 56.21905 17.74503 34989 ft 488 kts 27°
2026-05-06 09:55 56.27808 17.80553 34991 ft 489 kts 27°
2026-05-06 09:55 56.33715 17.86619 34996 ft 489 kts 27°
2026-05-06 09:56 56.39622 17.92714 35002 ft 490 kts 27°
2026-05-06 09:56 56.45543 17.98855 34991 ft 491 kts 27°
2026-05-06 09:57 56.51478 18.05034 34999 ft 492 kts 27°
2026-05-06 09:57 56.57413 18.11236 35002 ft 493 kts 27°
2026-05-06 09:58 56.63357 18.17463 35019 ft 494 kts 27°
2026-05-06 09:58 56.69312 18.23710 35015 ft 494 kts 27°
2026-05-06 09:59 56.75266 18.29976 35018 ft 494 kts 27°
2026-05-06 09:59 56.81218 18.36291 35025 ft 495 kts 27°
2026-05-06 10:00 56.87167 18.42627 35025 ft 495 kts 27°
2026-05-06 10:00 56.93130 18.48983 35021 ft 497 kts 27°
2026-05-06 10:01 56.99063 18.55342 35011 ft 497 kts 27°
2026-05-06 10:01 57.05029 18.61763 35041 ft 497 kts 27°
2026-05-06 10:02 57.10995 18.68197 35034 ft 498 kts 27°
2026-05-06 10:02 57.16983 18.74677 35017 ft 499 kts 27°
2026-05-06 10:03 57.22976 18.81195 35021 ft 501 kts 27°
2026-05-06 10:03 57.28979 18.87748 35028 ft 501 kts 27°
2026-05-06 10:04 57.34989 18.94332 35036 ft 502 kts 27°
2026-05-06 10:04 57.40999 19.00949 35045 ft 502 kts 27°
2026-05-06 10:05 57.47005 19.07582 35044 ft 502 kts 27°
2026-05-06 10:05 57.53008 19.14239 35048 ft 502 kts 28°
2026-05-06 10:06 57.59009 19.20927 35071 ft 503 kts 27°
2026-05-06 10:06 57.65031 19.27643 35039 ft 505 kts 27°
2026-05-06 10:07 57.71064 19.34407 35032 ft 506 kts 27°
2026-05-06 10:07 57.77109 19.41215 35040 ft 508 kts 27°
2026-05-06 10:08 57.83121 19.48014 35086 ft 508 kts 26°
2026-05-06 10:08 57.89186 19.54879 35071 ft 509 kts 26°
2026-05-06 10:09 57.95255 19.61795 35063 ft 510 kts 27°
2026-05-06 10:09 58.01315 19.68752 35066 ft 510 kts 27°
2026-05-06 10:10 58.07379 19.75724 35103 ft 510 kts 26°
2026-05-06 10:10 58.13444 19.82714 35072 ft 510 kts 26°
2026-05-06 10:11 58.19512 19.89732 35072 ft 511 kts 26°
2026-05-06 10:11 58.25569 19.96762 35070 ft 511 kts 26°
2026-05-06 10:12 58.31632 20.03817 35110 ft 511 kts 26°
2026-05-06 10:12 58.37669 20.10906 35053 ft 509 kts 26°
2026-05-06 10:13 58.43694 20.18016 35054 ft 509 kts 26°
2026-05-06 10:13 58.49728 20.25149 35060 ft 510 kts 26°
2026-05-06 10:14 58.55761 20.32300 35065 ft 510 kts 26°
2026-05-06 10:14 58.61745 20.39417 35055 ft 509 kts 25°
2026-05-06 10:15 58.67797 20.46659 35055 ft 509 kts 25°
2026-05-06 10:15 58.73813 20.53878 35062 ft 510 kts 25°
2026-05-06 10:16 58.79797 20.61091 35072 ft 511 kts 26°
2026-05-06 10:16 58.85804 20.68390 35043 ft 509 kts 25°
2026-05-06 10:17 58.91793 20.75680 35059 ft 509 kts 25°
2026-05-06 10:17 58.97775 20.82999 35068 ft 509 kts 25°
2026-05-06 10:18 59.03529 20.91104 35068 ft 518 kts 39°
2026-05-06 10:18 59.08099 21.02058 35049 ft 527 kts 56°
2026-05-06 10:19 59.11909 21.14234 35048 ft 527 kts 56°
2026-05-06 10:19 59.15734 21.26441 35050 ft 528 kts 56°
2026-05-06 10:20 59.19558 21.38711 35052 ft 529 kts 56°
2026-05-06 10:20 59.22724 21.48947 35054 ft 530 kts 56°
2026-05-06 10:21 59.26519 21.61301 35095 ft 530 kts 56°
2026-05-06 10:21 59.30307 21.73667 35081 ft 530 kts 56°
2026-05-06 10:22 59.34078 21.86045 34871 ft 527 kts 56°
2026-05-06 10:22 59.35939 21.92181 34506 ft 522 kts 56°
2026-05-06 10:22 59.37794 21.98308 33986 ft 521 kts 56°
2026-05-06 10:23 59.39641 22.04418 33478 ft 519 kts 56°
2026-05-06 10:23 59.41451 22.10424 33014 ft 515 kts 56°
2026-05-06 10:23 59.43265 22.16462 32535 ft 512 kts 56°
2026-05-06 10:23 59.45066 22.22474 32093 ft 510 kts 55°
2026-05-06 10:24 59.46863 22.28479 31577 ft 508 kts 55°
2026-05-06 10:24 59.48644 22.34452 31105 ft 505 kts 55°
2026-05-06 10:24 59.50420 22.40415 30632 ft 503 kts 55°
2026-05-06 10:24 59.52185 22.46352 30163 ft 501 kts 55°
2026-05-06 10:25 59.53937 22.52269 29656 ft 499 kts 56°
2026-05-06 10:25 59.55674 22.58166 29210 ft 495 kts 56°
2026-05-06 10:25 59.57394 22.64023 28764 ft 492 kts 56°
2026-05-06 10:25 59.59099 22.69844 28327 ft 488 kts 56°
2026-05-06 10:26 59.60784 22.75618 27864 ft 484 kts 56°
2026-05-06 10:26 59.62456 22.81359 27465 ft 480 kts 56°
2026-05-06 10:26 59.64115 22.87062 27052 ft 477 kts 56°
2026-05-06 10:26 59.65761 22.92738 26639 ft 474 kts 56°
2026-05-06 10:27 59.67396 22.98390 26221 ft 472 kts 56°
2026-05-06 10:27 59.69022 23.04008 25806 ft 470 kts 56°
2026-05-06 10:27 59.70641 23.09602 25399 ft 467 kts 57°
2026-05-06 10:27 59.72254 23.15182 24961 ft 466 kts 57°
2026-05-06 10:28 59.73856 23.20752 24536 ft 465 kts 57°
2026-05-06 10:28 59.75449 23.26316 24095 ft 463 kts 57°
2026-05-06 10:28 59.77038 23.31880 23659 ft 462 kts 57°
2026-05-06 10:28 59.78615 23.37422 23225 ft 459 kts 57°
2026-05-06 10:29 59.80177 23.42922 22725 ft 457 kts 57°
2026-05-06 10:29 59.81722 23.48374 22377 ft 451 kts 57°
2026-05-06 10:29 59.83262 23.53821 21897 ft 449 kts 57°
2026-05-06 10:29 59.84783 23.59205 21377 ft 447 kts 57°
2026-05-06 10:30 59.86295 23.64558 21076 ft 440 kts 57°
2026-05-06 10:30 59.87782 23.69843 20627 ft 437 kts 57°
2026-05-06 10:30 59.89257 23.75104 20175 ft 433 kts 57°
2026-05-06 10:30 59.90703 23.80286 20028 ft 421 kts 57°
2026-05-06 10:31 59.91954 23.85478 19895 ft 411 kts 64°
2026-05-06 10:31 59.93055 23.90675 19477 ft 401 kts 64°
2026-05-06 10:31 59.94133 23.95749 18777 ft 394 kts 64°
2026-05-06 10:31 59.95196 24.00748 18008 ft 388 kts 64°
2026-05-06 10:32 59.96247 24.05681 17535 ft 383 kts 64°
2026-05-06 10:32 59.97281 24.10539 17111 ft 379 kts 64°
2026-05-06 10:32 59.98287 24.15297 16661 ft 374 kts 64°
2026-05-06 10:32 59.99286 24.20047 16247 ft 368 kts 64°
2026-05-06 10:33 60.00268 24.24733 15863 ft 363 kts 64°
2026-05-06 10:33 60.01235 24.29358 15483 ft 358 kts 64°
2026-05-06 10:33 60.02192 24.33939 15102 ft 357 kts 64°
2026-05-06 10:33 60.03145 24.38509 14714 ft 355 kts 64°
2026-05-06 10:34 60.04092 24.43064 14339 ft 354 kts 64°
2026-05-06 10:34 60.05031 24.47584 14031 ft 350 kts 64°
2026-05-06 10:34 60.05962 24.52075 13676 ft 347 kts 64°
2026-05-06 10:34 60.06879 24.56519 13257 ft 344 kts 64°
2026-05-06 10:35 60.07782 24.60910 12881 ft 337 kts 64°
2026-05-06 10:35 60.08668 24.65213 12471 ft 331 kts 64°
2026-05-06 10:35 60.09543 24.69428 12099 ft 324 kts 62°
2026-05-06 10:35 60.10641 24.73276 11759 ft 313 kts 50°
2026-05-06 10:36 60.12024 24.76549 11426 ft 305 kts 42°
2026-05-06 10:36 60.13466 24.79661 11101 ft 303 kts 43°
2026-05-06 10:36 60.14885 24.82748 10769 ft 300 kts 43°
2026-05-06 10:36 60.16290 24.85818 10438 ft 297 kts 44°
2026-05-06 10:37 60.17686 24.88875 10109 ft 295 kts 44°
2026-05-06 10:37 60.19069 24.91903 9784 ft 293 kts 44°
2026-05-06 10:37 60.20437 24.94906 9444 ft 290 kts 45°
2026-05-06 10:37 60.21791 24.97885 9125 ft 286 kts 44°
2026-05-06 10:38 60.23124 25.00813 8807 ft 282 kts 45°
2026-05-06 10:38 60.24443 25.03713 8489 ft 279 kts 44°
2026-05-06 10:38 60.25750 25.06584 8180 ft 276 kts 44°
2026-05-06 10:38 60.27025 25.09393 7860 ft 274 kts 44°
2026-05-06 10:39 60.28299 25.12211 7571 ft 271 kts 44°
2026-05-06 10:39 60.29565 25.15017 7265 ft 269 kts 44°
2026-05-06 10:39 60.30827 25.17813 6954 ft 271 kts 44°
2026-05-06 10:39 60.32100 25.20637 6645 ft 272 kts 45°
2026-05-06 10:40 60.33369 25.23462 6338 ft 271 kts 44°
2026-05-06 10:40 60.34633 25.26283 6029 ft 269 kts 45°
2026-05-06 10:40 60.35877 25.29063 5756 ft 264 kts 45°
2026-05-06 10:40 60.37102 25.31795 5487 ft 261 kts 45°
2026-05-06 10:41 60.38311 25.34494 5220 ft 257 kts 44°
2026-05-06 10:41 60.39504 25.37156 4962 ft 254 kts 45°
2026-05-06 10:41 60.40724 25.39719 4707 ft 253 kts 33°
2026-05-06 10:41 60.42340 25.41145 4543 ft 257 kts
2026-05-06 10:42 60.44063 25.40804 4386 ft 245 kts 339°
2026-05-06 10:42 60.45533 25.39269 4217 ft 233 kts 319°
2026-05-06 10:42 60.46557 25.36886 4081 ft 218 kts 298°
2026-05-06 10:42 60.47075 25.34094 3901 ft 207 kts 280°
2026-05-06 10:43 60.47101 25.31258 3753 ft 198 kts 262°
2026-05-06 10:43 60.46686 25.28625 3639 ft 197 kts 245°
2026-05-06 10:43 60.45881 25.26374 3478 ft 199 kts 230°
2026-05-06 10:44 60.44025 25.22235 3162 ft 197 kts 231°
2026-05-06 10:44 60.43120 25.20217 3057 ft 185 kts 231°
2026-05-06 10:44 60.42286 25.18360 2900 ft 177 kts 231°
2026-05-06 10:44 60.41481 25.16567 2699 ft 169 kts 231°
2026-05-06 10:45 60.40696 25.14819 2469 ft 167 kts 230°
2026-05-06 10:45 60.39923 25.13099 2234 ft 164 kts 231°
2026-05-06 10:45 60.39155 25.11393 2029 ft 164 kts 230°
2026-05-06 10:45 60.38399 25.09714 1786 ft 153 kts 229°
2026-05-06 10:46 60.37712 25.08191 1577 ft 142 kts 230°
2026-05-06 10:46 60.37057 25.06740 1388 ft 137 kts 230°
2026-05-06 10:46 60.36416 25.05319 1197 ft 136 kts 229°
2026-05-06 10:46 60.35779 25.03908 1013 ft 136 kts 230°
2026-05-06 10:47 60.35145 25.02494 799 ft 136 kts 229°
2026-05-06 10:47 60.34500 25.01087 637 ft 136 kts 230°
2026-05-06 10:47 60.33866 24.99684 456 ft 134 kts 231°
2026-05-06 10:47 60.33236 24.98274 254 ft 135 kts 231°
2026-05-06 10:48 60.32617 24.96906 176 ft 119 kts 229°
2026-05-06 10:48 60.32243 24.96066 178 ft 37 kts 223°
2026-05-06 10:48 60.32055 24.95733 174 ft 36 kts 212°
2026-05-06 10:48 60.31883 24.95603 170 ft 17 kts 197°
2026-05-06 10:49 60.31814 24.95641 170 ft 6 kts 115°
2026-05-06 10:49 60.31829 24.95736 169 ft 9 kts 53°
2026-05-06 10:49 60.31876 24.95838 169 ft 11 kts 46°
2026-05-06 10:49 60.31926 24.95952 170 ft 11 kts 49°
2026-05-06 10:50 60.31982 24.96077 169 ft 13 kts 47°
2026-05-06 10:50 60.32049 24.96222 168 ft 15 kts 47°
2026-05-06 10:50 60.32114 24.96368 168 ft 12 kts 49°
2026-05-06 10:50 60.32110 24.96525 167 ft 12 kts 91°
2026-05-06 10:51 60.32161 24.96673 167 ft 12 kts 47°
2026-05-06 10:51 60.32180 24.96805 166 ft 11 kts 129°
2026-05-06 10:51 60.32109 24.96894 166 ft 13 kts 150°
2026-05-06 10:51 60.32022 24.96992 166 ft 15 kts 153°
2026-05-06 10:52 60.31924 24.97092 166 ft 16 kts 153°
2026-05-06 10:52 60.31828 24.97192 166 ft 14 kts 153°
2026-05-06 10:52 60.31773 24.97206 166 ft 7 kts 217°
2026-05-06 10:52 60.31756 24.97155 166 ft 2 kts 241°
2026-05-06 10:53 60.31749 24.97126 166 ft 2 kts 242°
2026-05-06 10:53 60.31748 24.97124 166 ft 0 kts 242°